Date String (YYYY-MM-DD hh:mm:ss) UTC,Instrument flags,Ambient pressure (hPa),Sample flow (lpm),Bypass flow (lpm),Sample temperature (°C),Ambient temperature (°C),ASC tube jacket temperature (°C),LED temperature (°C),Box temperature (°C),Sample RH (%),Span deviation,Mass concentration (μg/m³),Mass concentration (μg/m³),Mass concentration (μg/m³)
DateTimeUTC,F1_M11,P_M11,Q1_M11,Q2_M11,T1_M11,T2_M11,T3_M11,T4_M11,T5_M11,U1_M11,ZSPAN_M11,X2_M11,X0_M11,X1_M11
2021-09-10 23:00:00,,0827.5,5.00,0.00,28.6,26.2,00.0,37.7,30.3,13.1,0001.0,0015.65,0028.61,0013.82
2021-09-10 23:01:00,,0827.5,5.01,0.00,28.7,26.6,00.0,37.7,30.4,13.4,0000.8,0015.57,0027.89,0013.80
2021-09-10 23:02:00,,0827.6,5.01,0.00,28.7,27.0,00.0,37.7,30.5,13.2,0000.8,0015.52,0027.28,0013.78
2021-09-10 23:03:00,,0827.5,5.00,0.00,28.8,27.3,00.0,37.7,30.7,13.0,0000.8,0015.42,0028.14,0013.72
2021-09-10 23:04:00,,0827.5,5.00,0.00,28.8,26.9,00.0,37.7,30.5,12.7,0000.7,0015.31,0028.33,0013.68
2021-09-10 23:05:00,,0827.5,5.00,0.00,28.7,25.5,00.0,37.7,30.1,12.9,0000.8,0015.29,0028.32,0013.69
2021-09-10 23:06:00,,0827.6,5.00,0.00,28.6,25.6,00.0,37.7,30.1,12.8,0000.4,0015.30,0028.57,0013.67
2021-09-10 23:07:00,,0827.5,5.01,0.00,28.6,26.1,00.0,37.7,30.2,12.6,-000.3,0015.22,0029.33,0013.61
2021-09-10 23:08:00,,0827.5,4.99,0.00,28.6,26.5,00.0,37.7,30.3,12.6,-000.1,0015.20,0029.75,0013.57
2021-09-10 23:09:00,,0827.5,4.99,0.00,28.7,26.9,00.0,37.7,30.5,12.4,-000.2,0015.14,0029.54,0013.53
2021-09-10 23:10:00,,0827.5,5.01,0.00,28.7,27.3,00.0,37.7,30.6,12.2,-000.3,0015.08,0029.77,0013.49
2021-09-10 23:11:00,,0827.6,5.00,0.00,28.8,27.4,00.0,37.7,30.7,12.2,-000.7,0015.08,0029.77,0013.46
2021-09-10 23:12:00,,0827.5,5.01,0.00,28.7,26.0,00.0,37.7,30.3,12.4,-000.9,0015.12,0029.92,0013.42
2021-09-10 23:13:00,,0827.5,5.00,0.00,28.6,25.4,00.0,37.7,30.1,12.6,-000.9,0015.10,0030.37,0013.38
2021-09-10 23:14:00,,0827.5,4.99,0.00,28.6,25.9,00.0,37.7,30.2,12.6,-000.7,0015.08,0029.97,0013.37
2021-09-10 23:15:00,,0827.6,5.01,0.00,28.6,26.4,00.0,37.7,30.3,12.5,-000.7,0015.10,0029.01,0013.34
2021-09-10 23:16:00,,0827.5,4.99,0.00,28.6,26.8,00.0,37.7,30.4,12.8,-000.9,0015.21,0029.69,0013.34
2021-09-10 23:17:00,,0827.5,5.00,0.00,28.7,27.1,00.0,37.7,30.6,13.2,-000.8,0015.21,0029.70,0013.36
2021-09-10 23:18:00,,0827.5,5.01,0.00,28.8,27.5,00.0,37.7,30.7,13.4,-000.1,0015.19,0028.77,0013.36
2021-09-10 23:19:00,,0827.5,5.00,0.00,28.8,27.5,00.0,37.7,30.7,13.1,-000.4,0015.13,0029.25,0013.36
2021-09-10 23:20:00,,0827.6,5.00,0.00,28.8,26.2,00.0,37.7,30.3,12.4,-000.3,0015.11,0029.12,0013.38
2021-09-10 23:21:00,,0827.5,5.00,0.00,28.7,25.5,00.0,37.7,30.1,12.4,-000.2,0015.25,0030.74,0013.41
2021-09-10 23:22:00,,0827.6,5.00,0.00,28.6,26.0,00.0,37.7,30.3,12.3,0000.5,0015.29,0031.35,0013.43
2021-09-10 23:23:00,,0827.5,5.00,0.00,28.6,26.4,00.0,37.7,30.4,12.7,0000.8,0015.36,0031.74,0013.43
2021-09-10 23:24:00,,0827.6,5.00,0.00,28.7,26.8,00.0,37.7,30.5,12.3,0000.5,0015.34,0032.37,0013.42
2021-09-10 23:25:00,,0827.5,5.01,0.00,28.7,27.3,00.0,37.7,30.6,12.5,0000.4,0015.35,0031.55,0013.44
2021-09-10 23:26:00,,0827.5,5.01,0.00,28.8,27.6,00.0,37.7,30.8,12.0,0000.6,0015.37,0031.72,0013.46
2021-09-10 23:27:00,,0827.5,4.99,0.00,28.9,27.7,00.0,37.8,30.8,12.1,0000.5,0015.28,0031.50,0013.44
2021-09-10 23:28:00,,0827.5,5.01,0.00,28.8,26.2,00.0,37.7,30.4,12.1,0000.1,0015.31,0031.53,0013.43
2021-09-10 23:29:00,,0827.5,5.00,0.00,28.7,25.6,00.0,37.7,30.2,12.6,-000.3,0015.24,0031.58,0013.42
2021-09-10 23:30:00,,0827.5,5.00,0.00,28.7,26.0,00.0,37.7,30.3,12.1,0000.3,0015.26,0031.26,0013.42
2021-09-10 23:31:00,,0827.5,4.99,0.00,28.7,26.5,00.0,37.7,30.4,12.0,0000.9,0015.32,0031.51,0013.42
2021-09-10 23:32:00,,0827.5,5.01,0.00,28.7,26.9,00.0,37.7,30.5,11.9,0000.9,0015.25,0030.29,0013.40
2021-09-10 23:33:00,,0827.5,4.99,0.00,28.8,27.2,00.0,37.7,30.6,11.8,-000.0,0015.18,0029.92,0013.39
2021-09-10 23:34:00,,0827.5,5.02,0.00,28.9,27.6,00.0,37.8,30.8,11.8,0000.1,0015.09,0030.55,0013.39
2021-09-10 23:35:00,,0827.5,5.00,0.00,28.9,26.9,00.0,37.8,30.6,11.8,0000.2,0015.12,0029.71,0013.42
2021-09-10 23:36:00,,0827.5,5.00,0.00,28.7,25.6,00.0,37.8,30.2,12.0,0000.1,0015.14,0030.19,0013.42
2021-09-10 23:37:00,,0827.5,5.00,0.00,28.7,25.8,00.0,37.8,30.2,12.3,-000.2,0015.21,0030.17,0013.42
2021-09-10 23:38:00,,0827.5,5.00,0.00,28.7,26.2,00.0,37.7,30.3,12.2,0000.3,0015.16,0029.52,0013.41
2021-09-10 23:39:00,,0827.6,5.01,0.00,28.7,26.6,00.0,37.7,30.4,12.0,0000.5,0015.10,0029.03,0013.38
2021-09-10 23:40:00,,0827.5,5.00,0.00,28.7,27.0,00.0,37.7,30.6,12.1,0000.9,0015.22,0029.58,0013.41
2021-09-10 23:41:00,,0827.5,5.01,0.00,28.8,27.5,00.0,37.7,30.7,11.9,0000.3,0015.24,0028.62,0013.42
2021-09-10 23:42:00,,0827.6,5.00,0.00,28.9,27.5,00.0,37.8,30.7,11.9,-000.2,0015.22,0028.19,0013.42
2021-09-10 23:43:00,,0827.6,5.00,0.00,28.8,26.1,00.0,37.8,30.3,12.1,-000.0,0015.23,0028.92,0013.42
2021-09-10 23:44:00,,0827.6,5.00,0.00,28.7,25.5,00.0,37.7,30.1,12.1,0000.5,0015.20,0028.57,0013.40
2021-09-10 23:45:00,,0827.6,5.00,0.00,28.6,26.0,00.0,37.7,30.2,12.0,0000.1,0015.24,0028.64,0013.39
2021-09-10 23:46:00,,0827.7,4.99,0.00,28.7,26.4,00.0,37.7,30.3,12.2,0000.0,0015.26,0029.22,0013.38
2021-09-10 23:47:00,,0827.7,5.01,0.00,28.7,26.8,00.0,37.7,30.5,12.4,-000.1,0015.21,0030.04,0013.35
2021-09-10 23:48:00,,0827.7,5.00,0.00,28.8,27.2,00.0,37.7,30.6,12.1,0000.1,0015.12,0030.60,0013.35
2021-09-10 23:49:00,,0827.7,5.01,0.00,28.8,27.5,00.0,37.7,30.7,11.9,0000.3,0015.17,0030.78,0013.38
2021-09-10 23:50:00,,0827.7,5.00,0.00,28.9,27.5,00.0,37.8,30.8,11.7,0000.7,0015.21,0030.79,0013.40
2021-09-10 23:51:00,,0827.7,5.01,0.00,28.8,26.1,00.0,37.8,30.4,12.3,0000.7,0015.13,0030.02,0013.39
2021-09-10 23:52:00,,0827.7,4.99,0.00,28.7,25.5,00.0,37.7,30.2,12.3,0001.2,0015.10,0031.44,0013.36
2021-09-10 23:53:00,,0827.7,5.00,0.00,28.7,26.0,00.0,37.7,30.3,11.8,0001.1,0015.08,0032.32,0013.35
2021-09-10 23:54:00,,0827.7,4.99,0.00,28.7,26.4,00.0,37.7,30.4,11.7,0000.7,0015.09,0032.08,0013.38
2021-09-10 23:55:00,,0827.7,5.01,0.00,28.7,26.9,00.0,37.7,30.5,11.7,0000.0,0015.15,0033.22,0013.42
2021-09-10 23:56:00,,0827.7,4.98,0.00,28.8,27.3,00.0,37.7,30.6,11.9,-000.1,0015.18,0032.63,0013.43
2021-09-10 23:57:00,,0827.7,4.99,0.00,28.9,27.7,00.0,37.8,30.8,11.7,0000.6,0015.16,0032.09,0013.45
2021-09-10 23:58:00,,0827.7,5.00,0.00,28.9,27.6,00.0,37.8,30.8,11.6,0000.9,0015.24,0031.04,0013.50
2021-09-10 23:59:00,,0827.7,5.01,0.00,28.8,26.1,00.0,37.8,30.4,11.6,0000.8,0015.35,0030.69,0013.54
